Location: Pel�-Koumbol�
(14.9505°N, 3.0798°W)
Time: 12:14:21
(UTC+00:00)

GPS 2-18 Rocket1 - Pass Details

Date: 17 February 2020
Orbit: 459 x 516 km, 20.9° (Epoch: 04 April)

Event Time Altitude Azimuth Distance (km) Brightness Sun altitude
Exits shadow 05:11:44 66° 342° (NNW) 527 3.0 -20.9°
Maximum altitude 05:12:00 70° 14° (NNE) 516 3.1 -20.8°
Drops below altitude 10° 05:15:52 10° 98° (E) 1,675 7.0 -19.9°
Sets 05:18:07 0° 101° (E) 2,567 8.4 -19.4°
